Regional Weather Roundup
Issued by NWS Nashville, TN

Home | Current Version | Previous Version | Text Only | Print | Product List | Glossary On
Versions: 1 2 3 4 5 6 7 8 9 10 11 12 13 14 15 16 17 18 19 20 21 22 23 24 25 26 27 28 29 30 31 32 33 34 35 36 37 38 39 40 41 42 43 44 45 46 47 48 49 50
000
ASUS44 KOHX 202010
RWROHX
MIDDLE TENNESSEE HOURLY WEATHER ROUNDUP
NATIONAL WEATHER SERVICE NASHVILLE TN
200 PM CST FRI JAN 20 2017

NOTE: "FAIR" INDICATES FEW OR NO CLOUDS BELOW 12,000 FEET WITH
NO SIGNIFICANT WEATHER AND/OR OBSTRUCTIONS TO VISIBILITY.

* THESE REPORTS ARE NOT UNDER NWS QUALITY CONTROL AND MAY NOT
  REPORT WEATHER SUCH AS PRECIPITATION AND FOG.


TNZ005>011-023>034-057-059-062>066-078-080-202100
...NORTHERN MIDDLE TENNESSEE...

CITY           SKY/WX    TMP DP  RH WIND       PRES   REMARKS
CLARKSVILLE    PTSUNNY   63  54  72 S13       29.69F
CROSSVILLE     PTSUNNY   61  48  62 SW7       29.79F
GALLATIN       CLOUDY    66  54  63 VRB7      29.75F
DICKSON        PTSUNNY   63  54  72 SW14      29.70F
LEBANON        MOSUNNY   67  53  60 S12       29.72F
NASHVILLE      PTSUNNY   69  52  54 S16G22    29.72F
PORTLAND       PTSUNNY   64  54  68 SW7G15    29.72F
SMYRNA         PTSUNNY   67  54  63 S9        29.74F
SPRINGFIELD    PTSUNNY   64  54  68 S12       29.70F
WEST NASHVILLE MOSUNNY   66  54  63 S12       29.71F
$$
TNZ056-058-060-061-075>077-079-093>097-202100
...SOUTHERN MIDDLE TENNESSEE...

CITY           SKY/WX    TMP DP  RH WIND       PRES   REMARKS
COLUMBIA       MOSUNNY   66  63  88 SW15      29.71F
MCMINNVILLE    PTSUNNY   68  54  60 SW12      29.76F
SHELBYVILLE    PTSUNNY   68  55  64 S10       29.76F
TULLAHOMA      MOSUNNY   64  52  63 S13       29.77F
WINCHESTER     PTSUNNY   66  52  59 SW9       29.77F
$$


...KEY TO REMARKS...
VSB - VISIBILITY IN MILES
WCI - WIND CHILL INDEX
HX  - HEAT INDEX




USA.gov is the U.S. government's official web portal to all federal, state and local government web resources and services.